Lapse_Rate
6.9 7.1 7.5 7.3 7.1 6.7 6.7 6.7 7.1 7.0 7.1 6.9 7.4 7.2 7.3 6.9 6.7 6.5 6.4 6.2 5.8 6.0 5.7 5.8 6.0 6.1 6.0 5.9 5.9 6.0 6.2 6.3
6.8 7.0 6.7 6.9 6.8 6.7 6.5 6.6 6.9 7.0 6.8 6.7 7.0 7.3 7.5 7.1 7.1 7.0 6.8 6.5 6.3 6.1 6.0 5.9 5.9 6.0 5.9 5.9 5.7 5.7 5.9 6.0
6.7 6.6 6.7 6.6 6.8 6.8 6.8 6.8 6.8 6.9 7.1 6.9 7.1 7.5 7.4 7.4 7.0 6.9 6.9 6.6 6.6 6.5 6.3 6.2 5.9 5.9 5.9 6.0 5.7 5.6 5.6 5.6
6.9 6.7 6.5 6.7 6.4 6.8 7.0 7.0 7.0 6.8 7.0 6.7 6.9 6.4 6.7 6.7 6.9 7.0 6.9 6.8 6.6 6.4 6.3 6.2 5.9 5.8 5.8 5.8 5.6 5.6 5.4 5.5
7.0 6.8 6.7 6.6 6.7 6.4 6.2 6.1 6.4 6.5 6.7 7.0 6.7 6.4 6.4 6.9 6.4 6.6 6.9 6.7 6.7 6.6 6.2 6.0 6.3 6.0 5.8 5.7 5.6 5.7 5.6 5.7
7.1 7.0 6.8 6.8 6.7 6.6 6.2 6.1 6.3 6.3 6.4 6.6 6.7 6.4 6.2 6.4 6.3 6.0 6.4 6.4 6.5 6.4 6.4 6.2 6.2 6.2 6.1 6.0 5.9 5.8 5.4 5.6
7.0 7.1 6.9 6.7 6.7 6.4 6.4 6.1 6.1 6.2 6.1 6.2 6.2 5.9 6.0 6.2 6.3 5.6 6.2 6.4 6.3 6.3 6.3 6.4 6.2 6.3 6.1 5.9 5.8 5.8 5.8 5.6
6.1 6.3 7.1 6.7 6.7 6.4 6.4 6.4 6.2 6.1 6.0 5.9 5.4 5.2 5.2 5.9 6.2 6.2 6.2 6.5 6.4 6.6 6.4 6.4 6.3 6.0 6.1 5.9 5.9 5.7 5.7 5.7
5.0 5.3 6.2 6.3 6.6 6.2 6.0 6.4 6.3 6.0 6.0 5.9 6.1 5.9 5.7 5.6 6.3 6.2 6.2 6.2 6.3 6.2 6.2 6.2 6.0 6.0 5.9 5.9 5.8 5.7 5.9 5.8
5.3 5.7 5.8 6.2 6.1 6.2 6.1 6.1 6.3 6.3 6.2 6.2 6.3 6.1 6.3 6.1 5.7 5.8 5.9 6.2 6.3 6.4 6.3 6.1 6.0 6.0 5.6 5.5 5.6 5.7 5.6 5.7
6.0 5.9 6.3 6.5 6.5 6.6 6.2 6.5 6.3 6.5 6.3 6.5 6.8 6.8 6.5 6.4 5.8 5.4 5.4 5.5 5.9 6.1 6.6 6.4 5.6 5.9 5.8 5.5 5.5 5.7 5.6 5.8
6.1 6.0 6.5 6.6 6.9 6.8 6.9 6.8 6.8 6.8 6.6 6.6 7.1 7.2 7.0 6.8 6.6 6.6 6.2 6.2 5.8 5.9 6.2 6.0 6.4 6.0 6.0 5.8 5.7 5.8 5.9 5.6
5.8 5.9 6.2 6.7 6.8 6.8 6.7 7.1 7.2 7.0 7.1 7.0 7.3 7.3 7.3 6.9 7.0 7.0 6.7 6.3 6.4 6.3 6.8 6.6 6.4 6.2 6.3 5.9 5.9 5.8 5.8 6.1
5.7 5.7 6.1 6.4 6.9 7.0 6.8 6.9 7.3 7.4 7.3 7.4 7.4 7.5 7.5 7.3 7.2 7.1 6.9 6.7 6.8 6.7 6.6 6.6 6.7 6.7 6.5 6.0 5.8 6.0 5.9 5.9
5.5 6.0 6.0 6.5 6.9 7.2 7.0 6.7 6.4 6.7 7.4 7.5 7.7 7.7 7.6 7.5 7.3 7.1 7.0 6.9 6.5 6.5 6.7 6.4 6.5 6.6 6.5 6.3 5.9 5.9 5.8 5.8
5.1 5.9 6.0 6.2 6.8 6.9 6.8 6.5 6.3 6.8 7.4 7.7 7.6 7.6 7.7 7.6 7.3 7.2 7.1 7.1 6.9 6.7 6.8 6.6 6.4 6.5 6.3 6.2 6.1 6.1 5.8 6.1
5.2 6.0 6.4 6.6 6.6 6.8 6.7 6.8 7.0 7.1 7.1 7.4 7.7 7.7 7.7 7.8 7.6 7.2 7.2 7.0 7.1 7.2 7.2 7.1 6.8 6.5 6.2 6.2 6.0 6.1 6.1 6.2
5.0 5.5 6.6 6.7 7.0 7.2 7.0 7.0 7.0 7.3 7.3 7.3 7.3 7.3 7.5 8.0 7.9 7.4 7.0 7.2 7.2 7.2 7.3 7.3 6.9 6.5 6.4 6.1 6.2 6.0 5.9 5.9
5.2 5.7 6.4 6.6 7.0 7.4 7.3 6.5 6.4 6.6 7.0 7.1 7.1 7.3 7.4 7.5 7.5 7.9 7.8 7.6 7.6 7.5 7.3 7.1 6.9 6.6 6.7 6.6 6.5 6.5 6.6 6.6
Wind_Speed
21 17 17 15 13 13 15 12 14 14 9 11 11 11 13 13 15 15 16 15 17 17 13 12 15 9 6 7 5 3 3 4
22 20 12 12 12 13 17 15 15 12 10 10 9 11 8 8 16 16 17 16 17 17 12 11 12 6 5 8 3 4 2 3
23 23 12 14 16 16 15 18 16 14 11 10 7 10 11 9 15 15 17 18 18 17 14 11 12 5 6 6 5 3 2 4
24 24 20 18 14 18 20 19 18 16 13 8 4 5 6 8 9 8 15 18 18 20 17 16 14 13 7 8 6 6 4 4
21 22 22 19 18 17 14 14 16 15 14 13 14 12 12 8 8 8 11 19 18 18 18 17 16 13 8 9 14 7 4 7
20 21 20 18 17 17 12 12 16 15 16 15 12 11 9 7 8 10 11 15 20 22 19 17 14 14 13 12 8 9 5 6
19 19 19 17 16 15 15 5 10 13 15 18 19 16 12 8 10 10 9 9 10 20 20 18 17 16 13 14 15 11 9 5
18 19 19 18 19 18 15 14 11 2 12 14 12 12 8 10 11 11 12 9 8 11 17 14 13 18 17 16 12 11 10 9
16 17 16 16 18 16 15 15 11 12 9 9 1 12 8 7 7 9 9 9 10 14 15 16 17 17 16 16 11 8 10 10
15 16 14 15 14 14 14 14 13 12 11 9 7 4 1 9 8 5 5 6 6 9 15 12 15 14 17 15 9 10 10 10
15 13 14 12 12 11 12 12 11 11 11 9 8 8 8 6 4 7 7 4 4 5 7 9 9 13 15 12 10 9 10 9
12 13 11 11 11 11 11 11 12 11 10 10 10 9 8 8 7 3 8 7 7 9 10 9 9 10 10 10 12 11 11 12
11 11 11 11 11 11 11 10 9 8 9 9 9 8 8 6 6 8 8 7 9 10 9 10 10 10 10 11 12 12 13 13
10 10 11 10 11 10 11 11 11 9 8 7 7 8 7 7 6 6 5 8 5 9 10 10 10 10 11 12 13 13 14 14
11 10 10 10 10 11 10 10 10 10 9 9 7 7 8 7 7 7 6 4 6 9 7 9 10 10 11 12 12 13 13 13
13 12 10 11 11 12 11 11 10 10 10 10 9 8 7 7 8 7 7 6 6 7 8 8 9 9 10 12 12 13 14 14
13 14 13 13 13 12 12 13 11 10 10 10 9 10 8 7 7 7 7 5 4 5 7 9 8 7 13 13 14 14 14 15
9 10 11 11 12 12 12 11 10 9 9 9 9 9 10 10 9 8 7 7 5 6 7 8 10 10 11 15 15 11 15 14
11 11 12 11 9 10 11 10 11 10 10 9 9 9 9 8 8 9 8 7 9 10 10 8 9 4 16 11 10 10 11 14
Wind_Direction
324 209 202 193 192 188 185 184 186 175 171 166 170 175 178 173 182 188 180 181 177 174 179 174 172 160 141 138 143 111 136 150
349 338 202 186 185 183 188 183 187 176 176 178 182 181 175 184 194 188 182 183 179 177 174 170 171 160 163 143 115 140 96 120
353 352 320 187 188 193 187 191 184 184 186 188 188 190 196 190 197 188 190 187 183 180 175 176 175 155 157 154 147 133 109 173
353 352 349 346 231 198 196 190 183 181 181 175 141 170 191 196 198 192 193 193 190 188 185 185 179 177 174 174 163 162 154 187
353 351 347 348 342 335 208 206 185 184 179 181 185 190 200 200 203 199 192 188 189 196 192 189 185 187 182 182 178 178 149 183
347 348 343 340 349 339 334 210 184 187 185 191 193 197 200 194 189 194 194 189 195 190 187 186 183 186 189 188 181 187 185 173
344 346 341 343 352 344 359 332 197 190 190 192 195 208 207 199 179 193 192 185 189 193 190 188 189 189 187 192 193 195 202 197
342 345 343 346 356 352 358 4 32 50 207 202 198 189 212 220 203 204 195 185 190 197 184 188 191 191 192 191 193 201 199 208
342 341 338 346 353 346 360 0 16 28 35 16 240 213 213 220 218 208 205 205 201 192 194 194 197 196 191 193 198 202 200 211
339 338 341 344 339 345 2 353 12 17 19 14 14 23 265 215 175 238 207 196 198 200 193 197 192 193 200 195 205 207 202 209
329 334 338 334 330 350 355 6 7 10 12 2 1 1 359 326 120 174 215 204 180 190 203 209 202 199 204 200 209 213 207 213
322 324 327 326 339 359 356 357 5 6 2 355 350 349 350 352 350 238 192 206 198 208 210 213 214 208 211 210 220 222 217 224
316 322 329 342 345 354 354 352 355 356 354 349 341 333 341 347 352 334 346 211 192 198 197 206 213 218 213 211 216 221 219 225
321 323 341 344 347 352 353 350 347 349 347 342 331 327 330 328 324 320 321 321 282 203 199 205 212 209 215 218 223 225 224 227
327 331 341 341 351 351 350 347 348 343 335 329 326 316 313 309 307 305 303 297 301 304 238 222 214 211 221 228 225 228 229 232
334 336 338 346 359 352 348 345 342 340 332 329 328 317 305 301 298 297 291 293 285 279 299 254 234 229 234 227 231 234 239 241
334 340 342 357 355 349 344 344 341 334 327 318 316 313 308 301 295 296 303 283 288 300 295 294 264 236 238 232 239 238 235 237
319 338 353 354 347 341 338 333 325 327 326 318 315 310 306 306 308 297 289 282 275 281 273 271 275 274 250 238 235 248 250 250
330 338 350 347 337 344 341 338 337 336 334 327 319 308 301 299 298 296 283 272 286 288 289 274 277 332 16 353 276 245 248 256